Location: Cruquius
(52.3348°N, 4.6319°E)
Time: 20:34:17
(UTC+00:00)

SL-24 DEB - Pass Details

Date: 12 May 2021
Orbit: 667 x 697 km, 92.0° (Epoch: 20 June)

Event Time Altitude Azimuth Distance (km) Brightness Sun altitude
Exits shadow 21:42:27 21° 179° (S) 1,476 5.5 -15.0°
Maximum altitude 21:45:30 82° 264° (W) 683 4.2 -15.2°
Drops below altitude 10° 21:50:09 10° 354° (N) 2,112 7.9 -15.5°
Sets 21:52:25 0° 355° (N) 3,034 9.0 -15.7°
